Wetbulb
64.65 65.79 67.22 68.17 67.67 68.01 68.51 68.85 68.65 69.33 69.57 69.24 68.44 68.09 68.37 69.42 70.65 71.09 72.58 73.16 73.41 73.81 73.63 72.94 72.69 72.57 72.60 72.63 72.99 72.51 71.85 71.79 72.00 71.02 71.65 71.45 71.74 71.56 73.15 73.22 73.14 73.10 72.79
62.41 63.95 65.44 66.80 67.32 67.08 67.85 68.01 68.80 69.12 70.09 70.21 69.57 68.86 68.48 69.32 71.02 72.10 73.04 74.11 73.51 73.24 73.19 73.72 73.51 73.23 73.06 72.85 72.39 72.11 71.69 71.04 72.15 71.23 68.86 66.74 68.10 69.82 71.55 72.85 72.57 72.21 73.15
61.92 62.82 64.26 64.94 66.67 66.95 67.62 67.96 68.70 69.18 70.41 70.23 69.94 70.89 71.20 71.85 71.54 71.89 72.32 73.62 74.44 74.04 73.66 73.96 73.86 73.80 73.64 73.23 72.55 72.55 71.54 71.38 71.52 71.51 70.46 67.19 65.84 67.39 70.62 71.69 72.09 72.41 72.47
63.42 63.77 63.87 63.83 65.76 67.43 68.64 68.91 68.89 69.18 69.86 70.40 69.55 69.56 69.19 68.50 70.10 71.52 72.75 73.00 74.14 74.36 74.69 74.55 74.36 74.09 73.48 72.84 72.94 73.51 72.97 71.31 70.98 70.99 70.97 70.85 70.54 68.07 67.28 70.53 71.22 71.95 71.27
63.88 63.54 64.02 65.22 66.07 67.90 68.24 68.92 68.45 69.31 69.69 70.12 70.25 69.46 68.77 69.63 70.72 71.43 72.33 72.76 73.24 73.81 73.99 74.38 74.49 74.26 73.61 73.53 73.07 73.42 73.54 72.58 71.88 71.43 71.22 69.74 68.00 68.83 67.32 65.88 68.68 70.79 71.89
64.12 64.99 65.66 65.97 65.90 67.71 68.39 68.77 67.65 68.86 69.56 70.32 69.99 69.47 68.90 69.18 69.45 70.14 70.53 71.29 72.34 72.59 73.81 74.61 74.45 74.65 74.50 74.09 74.07 74.02 73.51 73.21 73.37 72.83 72.04 71.36 69.69 68.68 66.66 66.77 67.64 68.61 70.22
63.83 64.55 64.86 65.21 65.61 66.22 67.60 68.16 67.29 68.03 69.24 70.23 70.15 69.98 69.73 69.31 69.45 69.81 70.52 71.39 71.83 72.51 73.14 74.12 74.33 74.48 74.52 74.53 74.30 74.00 73.79 73.64 73.57 70.94 72.28 72.65 71.86 71.45 70.10 68.70 68.00 66.89 68.36
62.84 64.72 65.62 66.25 66.40 66.44 66.99 67.74 67.01 67.78 69.01 69.94 70.00 70.54 70.44 70.31 70.48 70.67 71.25 71.82 72.41 73.04 74.04 73.86 74.37 74.86 75.14 75.16 75.23 74.69 74.75 74.36 74.14 72.84 72.11 71.67 71.37 70.92 70.95 70.25 68.68 67.23 65.20
63.18 64.14 66.10 66.80 67.15 67.25 66.86 67.11 67.31 67.83 69.30 69.54 70.38 70.52 71.03 71.05 71.22 71.67 72.16 72.23 73.01 73.49 73.74 73.67 74.01 74.85 74.90 75.05 75.30 75.24 75.02 74.81 74.60 73.17 70.43 69.57 69.30 68.11 69.15 71.14 69.45 68.36 65.22
63.04 63.96 65.13 66.61 67.80 68.08 68.32 68.04 68.23 68.02 68.73 70.18 70.34 70.43 70.73 71.66 72.40 73.06 72.26 72.22 73.09 73.45 74.21 74.91 75.30 75.23 75.18 75.44 75.68 75.55 75.50 74.32 74.07 73.17 71.46 70.54 68.43 68.34 71.19 71.98 70.53 68.38 67.37
62.45 63.62 64.44 66.19 67.78 68.50 68.66 68.78 68.79 68.86 68.99 70.25 70.78 70.70 70.50 71.26 71.93 72.45 73.83 74.35 74.43 74.18 73.93 74.02 74.06 74.62 75.16 75.41 75.86 75.78 75.76 73.91 73.36 73.07 71.95 71.02 69.37 69.76 70.47 71.23 70.66 69.15 67.84
62.29 63.60 63.94 64.73 66.19 67.28 67.68 68.72 69.18 69.43 70.02 70.62 71.33 71.31 71.61 71.69 71.77 71.83 72.62 74.09 74.20 74.85 75.14 75.47 75.22 75.20 74.93 75.32 75.27 74.57 74.67 74.15 73.19 72.55 71.00 69.71 68.12 67.98 68.51 68.99 70.46 69.53 68.56
60.97 61.76 61.54 62.78 64.52 66.55 67.14 67.64 69.41 69.97 70.76 70.84 71.35 71.71 71.99 72.43 72.30 72.39 72.78 73.11 73.65 74.00 74.51 75.17 74.58 74.72 75.37 75.43 74.89 74.80 74.82 74.49 73.81 72.85 71.39 70.39 69.04 69.80 71.28 71.33 70.98 71.34 70.89
60.53 61.05 60.86 62.34 64.20 65.89 66.77 66.43 68.41 70.23 71.04 71.24 71.66 71.75 72.24 72.81 73.16 73.82 74.08 74.00 74.26 74.42 74.64 74.75 74.84 75.11 75.29 75.07 74.77 75.03 74.45 73.43 72.98 72.65 72.42 71.80 71.49 71.17 71.23 71.04 70.87 71.08 69.65
58.44 59.34 60.60 61.45 62.55 64.08 65.90 66.27 67.75 69.53 71.04 70.95 71.66 72.10 73.36 73.92 74.41 74.51 74.81 74.96 75.06 75.03 75.14 74.96 74.92 75.02 73.51 74.52 74.59 73.55 72.44 70.93 70.13 69.81 68.43 68.10 67.79 68.02 67.41 68.25 68.42 68.87 68.99
57.99 59.77 61.29 61.67 61.25 63.23 64.15 65.46 66.64 68.59 70.63 70.80 71.36 72.30 72.58 73.50 73.88 74.31 74.53 74.57 74.24 74.11 74.43 73.46 73.14 73.27 74.43 68.72 70.15 70.91 70.40 69.73 68.98 67.65 66.97 66.05 66.12 65.81 64.77 65.09 65.57 67.58 67.06
56.73 58.86 60.07 61.74 62.88 62.99 64.14 64.46 66.07 69.29 70.26 70.79 71.87 72.11 72.89 73.10 73.41 73.24 69.60 68.90 68.81 68.43 68.16 68.52 68.71 68.13 67.30 66.31 68.45 69.60 70.47 68.69 67.91 66.64 65.71 65.24 66.00 64.96 64.52 63.81 62.71 62.97 62.85
57.39 57.95 60.54 61.89 63.46 63.75 64.39 65.32 67.83 69.87 70.48 71.00 71.64 72.55 72.82 72.45 70.34 65.74 65.07 66.03 67.12 66.08 65.91 67.71 67.10 65.61 66.14 65.01 64.43 66.70 68.61 67.69 66.57 65.94 65.68 65.07 65.04 64.60 63.90 62.64 62.32 62.13 61.83
62.14 59.70 59.91 62.50 63.45 64.30 65.32 67.02 68.62 70.11 70.38 70.40 71.11 72.00 72.22 68.52 67.06 65.70 65.16 66.01 64.39 63.61 63.24 66.13 65.29 64.85 66.15 62.98 63.59 65.34 65.60 64.25 64.45 64.23 64.92 65.01 64.65 63.05 61.53 60.71 59.79 60.14 60.14
64.47 61.64 60.64 66.60 65.88 66.11 67.80 68.53 68.75 69.51 69.50 69.99 70.84 72.16 71.09 68.87 67.94 67.11 64.51 66.52 65.12 65.48 66.36 65.70 66.69 65.58 66.67 63.20 61.78 63.73 63.27 62.90 61.73 63.71 64.27 62.57 63.24 60.37 59.37 59.70 58.56 57.28 57.99
65.37 61.46 65.76 67.42 67.57 68.61 68.85 68.52 69.04 69.15 69.99 71.73 71.95 71.30 70.69 70.01 66.77 65.43 66.70 65.86 66.20 66.14 65.96 66.90 67.70 67.45 64.47 61.34 57.95 59.15 62.50 61.32 60.86 61.52 60.89 60.39 58.22 56.88 55.65 55.66 57.44 56.71 58.66
64.60 66.19 68.52 69.35 69.84 69.86 69.18 68.76 68.92 71.29 71.26 71.15 69.42 68.63 66.70 66.83 67.32 66.81 66.83 67.10 66.63 66.59 66.70 67.03 66.39 61.19 57.72 55.95 55.38 55.56 56.02 58.36 59.30 58.36 57.60 57.48 55.19 53.72 53.90 55.17 55.88 55.38 56.70
66.06 69.41 69.74 69.47 69.89 70.33 70.65 69.57 69.42 68.94 69.07 68.48 66.56 67.48 67.68 67.55 67.84 67.06 66.79 66.94 67.24 67.06 66.54 66.08 63.74 56.62 54.44 53.84 53.53 53.61 54.20 54.72 54.45 54.74 55.35 54.58 53.18 53.12 54.53 55.04 55.64 56.15 56.12
69.82 70.08 69.93 69.19 68.65 69.07 69.07 68.16 67.82 67.83 66.61 66.32 66.18 66.43 66.43 65.77 63.58 63.00 66.01 66.32 66.36 65.83 63.25 58.70 56.56 53.49 52.59 51.98 52.41 52.48 52.09 52.45 52.54 52.99 52.66 53.23 53.72 53.61 53.78 54.10 54.64 55.41 55.61
69.25 70.51 69.45 67.17 66.13 66.03 64.74 65.69 66.01 65.81 65.03 65.25 64.88 64.99 64.63 54.39 51.12 49.83 52.48 52.33 51.04 56.73 53.42 52.02 51.87 51.63 50.91 50.31 47.91 47.18 49.69 50.26 49.97 50.64 51.41 50.25 50.36 50.44 51.35 52.12 53.06 53.49 53.75
65.92 65.14 64.09 62.40 62.03 62.39 62.41 62.81 63.57 63.85 63.68 64.01 64.15 60.83 60.18 57.17 52.44 50.69 49.02 48.33 48.22 47.24 46.16 46.10 48.70 50.32 47.52 45.74 44.51 43.45 43.75 45.39 46.67 49.17 48.05 47.87 48.51 48.54 48.47 48.40 49.13 49.59 50.06
MSLP
1009.79 1010.40 1010.72 1011.23 1011.92 1012.51 1013.15 1013.58 1014.11 1014.40 1014.95 1015.53 1016.01 1016.29 1016.40 1016.31 1016.23 1016.06 1016.04 1016.25 1016.40 1016.58 1016.91 1017.16 1017.32 1017.47 1017.65 1017.74 1017.90 1017.86 1017.63 1017.26 1017.10 1016.97 1016.30 1015.69 1015.33 1015.27 1015.25 1015.02 1015.00 1015.14 1015.28
1009.69 1009.88 1010.26 1010.78 1011.21 1011.73 1012.35 1013.11 1013.39 1013.97 1014.39 1014.85 1015.21 1015.57 1015.80 1015.86 1015.69 1015.57 1015.72 1015.75 1015.87 1016.13 1016.47 1016.85 1017.22 1017.37 1017.49 1017.50 1017.47 1017.58 1017.49 1017.22 1016.88 1016.99 1017.03 1016.41 1015.76 1015.43 1015.01 1014.87 1014.86 1014.97 1014.87
1008.96 1009.34 1009.85 1010.17 1010.68 1011.35 1011.88 1012.37 1012.79 1013.35 1013.90 1014.33 1014.92 1015.54 1015.60 1015.59 1015.68 1015.67 1015.59 1015.37 1015.44 1015.67 1016.06 1016.46 1016.81 1017.14 1017.24 1017.16 1017.08 1017.21 1017.21 1016.97 1016.93 1017.09 1017.10 1016.88 1016.63 1015.95 1015.07 1014.65 1014.66 1014.53 1014.59
1008.14 1008.45 1009.02 1009.69 1010.18 1010.54 1011.10 1011.59 1012.20 1012.76 1013.31 1013.91 1014.54 1014.93 1015.04 1015.38 1015.32 1015.30 1015.16 1015.15 1015.25 1015.45 1015.76 1016.06 1016.29 1016.56 1016.70 1016.67 1016.60 1016.57 1016.77 1017.03 1016.84 1016.56 1016.45 1016.30 1016.50 1016.44 1015.67 1015.03 1014.60 1014.39 1014.08
1007.02 1007.51 1008.04 1008.52 1009.01 1009.87 1010.50 1010.99 1011.65 1012.35 1012.83 1013.36 1013.85 1014.38 1014.72 1014.80 1014.88 1014.96 1015.04 1015.10 1015.08 1015.09 1015.28 1015.44 1015.68 1015.95 1015.78 1016.00 1015.89 1016.07 1016.13 1016.06 1016.42 1016.57 1016.79 1016.73 1016.47 1016.55 1016.59 1015.82 1015.00 1014.32 1013.93
1005.85 1006.53 1007.01 1007.72 1008.44 1009.21 1009.94 1010.55 1011.13 1011.68 1012.24 1012.77 1013.33 1013.77 1014.14 1014.46 1014.81 1014.81 1014.82 1014.82 1014.79 1014.92 1014.88 1014.94 1014.96 1014.87 1015.04 1015.18 1015.10 1015.35 1015.43 1015.31 1015.76 1016.06 1016.17 1016.30 1016.46 1016.25 1016.35 1016.25 1015.55 1015.05 1014.00
1004.88 1005.83 1006.48 1006.96 1007.62 1008.42 1009.15 1009.88 1010.54 1011.18 1011.65 1012.21 1012.70 1013.06 1013.44 1013.90 1014.13 1014.23 1014.35 1014.60 1014.77 1014.81 1014.62 1014.79 1014.79 1014.65 1014.58 1014.52 1014.63 1015.10 1015.24 1015.14 1015.15 1015.30 1015.42 1015.43 1015.65 1015.69 1015.78 1015.79 1015.59 1015.32 1014.51
1003.95 1004.69 1005.16 1005.87 1006.65 1007.40 1008.10 1008.84 1009.63 1010.29 1010.96 1011.52 1011.97 1012.42 1012.84 1013.22 1013.54 1013.78 1013.87 1013.97 1014.15 1014.19 1014.22 1014.21 1014.26 1014.22 1014.18 1014.26 1014.48 1014.71 1014.71 1014.81 1014.85 1014.95 1015.08 1015.12 1015.20 1015.26 1015.22 1015.24 1015.36 1015.18 1014.95
1002.99 1003.57 1004.24 1004.90 1005.63 1006.34 1006.98 1007.78 1008.66 1009.39 1010.04 1010.47 1011.06 1011.62 1012.09 1012.66 1012.98 1013.17 1013.39 1013.56 1013.73 1013.88 1014.02 1013.93 1013.96 1013.91 1013.96 1014.02 1014.09 1014.25 1014.32 1014.38 1014.39 1014.39 1014.70 1014.90 1015.06 1015.05 1014.92 1014.74 1014.89 1015.21 1015.10
1002.20 1002.48 1003.39 1003.98 1004.62 1005.11 1005.83 1006.80 1007.54 1008.20 1008.64 1009.49 1010.18 1010.67 1011.19 1011.62 1011.98 1012.52 1013.01 1013.21 1013.31 1013.58 1013.78 1013.78 1013.84 1013.85 1013.84 1013.79 1013.89 1013.96 1014.18 1014.39 1014.21 1014.12 1014.32 1014.39 1014.43 1014.53 1014.66 1014.75 1014.85 1014.87 1014.90
1001.46 1001.57 1002.28 1002.79 1003.35 1004.06 1005.09 1005.55 1006.52 1007.29 1008.09 1008.66 1009.16 1009.77 1010.21 1010.73 1011.47 1011.93 1012.23 1012.55 1012.97 1013.26 1013.45 1013.53 1013.69 1013.71 1013.77 1013.77 1013.92 1013.99 1013.92 1014.02 1014.01 1014.01 1014.15 1014.13 1014.32 1014.30 1014.24 1014.23 1014.34 1014.53 1014.86
1000.38 1000.66 1001.23 1001.91 1002.71 1003.31 1003.96 1004.75 1005.44 1006.33 1006.87 1007.41 1008.25 1008.80 1009.46 1010.09 1010.59 1011.01 1011.45 1012.06 1012.59 1012.87 1013.09 1013.31 1013.55 1013.62 1013.76 1013.75 1013.81 1013.71 1013.66 1013.79 1013.82 1013.80 1013.95 1013.84 1014.04 1013.96 1013.90 1013.69 1013.45 1013.49 1013.71
1000.08 1000.36 1000.88 1001.28 1001.89 1002.43 1003.08 1003.76 1004.49 1005.17 1005.89 1006.77 1007.43 1008.18 1008.69 1009.35 1009.93 1010.46 1011.01 1011.60 1012.18 1012.59 1012.90 1013.16 1013.43 1013.43 1013.42 1013.44 1013.42 1013.43 1013.55 1013.56 1013.60 1013.45 1013.40 1013.49 1013.57 1013.46 1013.31 1013.28 1013.36 1013.28 1013.17
999.32 999.53 1000.20 1000.43 1000.78 1001.35 1002.15 1002.95 1003.67 1004.27 1005.12 1005.80 1006.61 1007.32 1007.95 1008.48 1009.05 1009.83 1010.69 1011.41 1011.89 1012.25 1012.68 1013.05 1013.28 1013.37 1013.35 1013.43 1013.35 1013.39 1013.51 1013.42 1013.53 1013.51 1013.41 1013.39 1013.43 1013.45 1013.31 1013.03 1012.92 1012.51 1012.61
999.25 999.30 999.36 999.76 1000.10 1000.72 1001.26 1001.98 1002.64 1003.30 1004.02 1005.04 1005.93 1006.55 1007.16 1007.98 1008.82 1009.59 1010.37 1010.87 1011.23 1011.59 1011.88 1012.43 1012.81 1013.23 1013.21 1012.93 1013.27 1013.40 1013.30 1013.32 1013.34 1013.67 1013.61 1013.47 1013.17 1013.12 1013.28 1013.16 1012.79 1012.70 1012.33
998.65 999.20 998.53 999.10 999.71 999.72 1000.17 1001.01 1001.75 1002.49 1003.52 1004.54 1005.33 1006.09 1006.85 1007.56 1008.33 1009.12 1009.55 1009.88 1010.31 1010.77 1011.59 1012.66 1012.90 1012.48 1013.01 1012.48 1012.88 1013.20 1013.28 1013.14 1013.05 1013.37 1013.40 1013.37 1013.18 1012.54 1012.31 1012.64 1012.49 1012.29 1012.21
998.16 997.96 998.02 997.45 997.92 998.53 999.07 1000.12 1001.06 1002.14 1003.13 1004.13 1004.89 1005.50 1006.31 1007.27 1007.97 1008.65 1009.52 1010.14 1010.73 1010.83 1011.07 1012.43 1012.99 1013.02 1012.94 1012.76 1012.68 1012.81 1013.18 1013.52 1013.38 1013.20 1013.11 1013.15 1013.04 1013.05 1012.70 1012.61 1012.52 1012.34 1012.09
998.46 997.70 997.10 997.08 996.83 997.82 998.79 999.21 1000.25 1001.13 1002.26 1002.88 1004.07 1004.94 1005.76 1006.79 1007.80 1008.41 1008.96 1009.28 1009.08 1009.21 1008.78 1008.47 1011.19 1013.03 1013.03 1012.66 1012.53 1012.78 1013.06 1013.47 1013.31 1012.93 1012.91 1012.73 1012.74 1012.70 1012.76 1012.35 1012.48 1012.43 1012.16
998.72 997.37 996.34 996.46 996.59 997.11 997.72 999.12 999.95 1000.83 1001.82 1002.74 1003.10 1004.34 1005.30 1006.40 1007.23 1007.77 1008.32 1009.26 1009.86 1009.76 1009.55 1010.23 1010.95 1011.87 1012.11 1012.29 1012.54 1012.60 1012.71 1013.10 1012.79 1012.37 1012.18 1012.31 1012.47 1012.35 1012.49 1012.31 1012.16 1011.93 1011.59
998.63 997.17 996.02 995.83 996.41 996.89 997.38 998.22 999.72 1000.57 1001.06 1001.94 1002.67 1003.60 1004.49 1005.55 1006.56 1007.11 1008.14 1009.10 1009.45 1010.32 1010.86 1011.03 1011.54 1011.70 1012.12 1012.39 1012.57 1012.47 1012.86 1012.72 1012.59 1012.38 1012.27 1012.08 1012.44 1012.41 1012.34 1012.14 1012.06 1011.94 1011.25
996.69 995.92 995.37 995.29 995.52 996.40 996.76 997.95 999.13 1000.06 1000.34 1001.59 1002.60 1003.75 1004.72 1005.60 1006.51 1007.09 1008.30 1008.90 1009.46 1010.11 1011.05 1011.42 1011.64 1011.93 1012.34 1012.68 1012.54 1012.34 1012.25 1012.54 1012.43 1012.40 1012.43 1012.37 1012.42 1012.43 1012.37 1012.12 1011.77 1011.34 1011.16
995.63 994.97 995.40 995.49 995.83 996.43 997.12 998.04 999.01 999.85 1000.53 1001.84 1002.83 1004.56 1005.74 1005.60 1007.35 1007.26 1008.48 1009.08 1009.45 1010.31 1011.12 1011.52 1012.11 1012.87 1013.06 1013.28 1013.21 1012.84 1012.90 1012.86 1012.45 1012.77 1012.86 1012.67 1012.39 1011.82 1011.74 1011.73 1011.30 1011.01 1010.75
995.50 995.46 996.00 996.30 996.52 996.75 997.40 998.50 1000.01 1000.75 1001.45 1002.77 1004.30 1005.50 1007.01 1006.81 1007.16 1007.01 1008.24 1009.27 1009.96 1010.61 1011.11 1011.42 1012.18 1012.94 1013.40 1013.53 1013.28 1013.42 1013.31 1013.07 1013.06 1013.05 1013.01 1012.73 1012.42 1011.96 1011.29 1011.47 1011.30 1010.82 1010.22
996.55 996.41 996.77 997.19 997.57 997.97 998.66 999.09 1000.12 1000.89 1001.50 1002.82 1003.59 1005.65 1006.83 1008.41 1008.17 1007.92 1009.34 1009.90 1010.65 1011.06 1011.50 1012.04 1012.60 1013.02 1013.22 1013.56 1013.87 1013.64 1013.49 1013.50 1013.45 1013.39 1012.96 1012.73 1012.71 1012.07 1011.45 1011.22 1011.14 1010.56 1010.03
997.64 997.62 997.93 998.72 998.91 998.66 999.99 1000.54 1000.98 1001.37 1002.43 1003.60 1004.81 1005.77 1007.17 1007.91 1008.67 1009.90 1010.79 1011.25 1012.11 1011.86 1012.44 1013.08 1013.30 1013.63 1014.08 1014.38 1014.28 1014.24 1014.25 1014.28 1013.92 1013.41 1012.94 1012.78 1012.41 1011.58 1011.22 1011.10 1010.86 1010.33 1009.68
999.04 999.09 999.38 999.66 1000.56 1000.66 1000.89 1001.63 1002.05 1002.59 1003.73 1005.12 1006.31 1006.99 1007.51 1008.51 1009.64 1010.70 1012.06 1012.88 1013.28 1013.23 1013.65 1014.10 1014.10 1014.50 1014.67 1014.57 1014.69 1014.52 1014.31 1014.33 1014.11 1013.70 1013.50 1012.85 1012.65 1012.15 1011.79 1011.62 1011.05 1010.67 1009.41
Wind_Speed
13 12 14 15 13 11 10 11 8 8 6 3 3 2 3 3 3 4 5 5 5 6 5 3 3 2 3 2 2 2 4 3 1 2 3 3 4 3 3 3 4 6 7
7 8 11 12 14 14 14 11 13 9 9 6 3 3 3 3 2 1 4 5 6 6 5 5 4 4 2 4 3 3 2 3 1 1 1 4 4 3 5 2 3 3 5
12 9 11 13 12 12 13 13 13 12 10 8 4 2 2 1 1 3 2 5 6 5 6 5 4 4 3 4 4 3 5 3 1 2 1 2 2 4 2 3 3 3 3
11 11 12 10 12 14 12 12 11 12 11 10 7 6 5 4 4 3 2 3 4 5 5 5 5 5 4 5 5 3 3 3 4 2 4 4 2 3 5 2 3 3 6
15 14 14 15 13 11 12 12 10 10 9 11 9 7 5 4 3 3 3 3 3 5 6 6 6 6 5 5 7 5 5 5 2 3 1 2 2 3 3 5 5 3 4
16 15 15 14 12 11 10 10 11 11 10 11 10 11 10 7 4 4 4 3 2 3 5 6 6 7 7 7 7 6 6 7 3 3 3 3 2 1 2 3 4 5 5
13 13 14 15 14 14 13 11 11 11 12 12 12 13 12 9 9 8 5 4 3 3 5 5 6 5 6 7 6 5 6 6 4 5 3 3 4 2 3 2 3 3 3
12 15 18 17 16 16 16 15 14 13 12 13 13 12 11 8 7 7 6 5 4 5 4 5 5 6 5 6 5 4 5 5 6 6 4 2 3 3 3 3 1 3 2
14 15 16 17 15 16 17 16 14 13 13 16 12 11 10 9 8 8 6 6 5 5 6 5 5 5 5 5 5 4 6 4 6 7 3 3 3 3 4 4 4 2 2
15 15 13 15 16 16 16 15 16 17 16 15 13 11 12 12 11 7 8 7 6 5 5 4 5 5 5 5 5 4 3 4 5 5 4 4 2 3 3 3 3 4 3
16 17 13 15 18 16 14 17 16 15 13 14 14 13 12 12 10 10 10 9 6 6 6 6 5 6 5 4 4 4 5 5 6 6 6 7 3 3 3 3 4 5 4
17 17 14 13 14 16 16 16 16 15 16 15 14 14 11 10 11 11 10 8 8 6 6 5 4 4 4 4 5 5 5 6 6 5 4 7 2 5 5 4 6 6 6
12 12 9 12 14 16 16 16 15 17 15 13 14 12 13 11 12 11 9 7 7 7 5 4 5 5 6 5 5 5 3 3 4 5 4 6 5 6 5 5 6 5 5
15 14 11 14 15 16 16 14 14 14 14 15 15 14 13 13 12 9 7 6 6 6 4 4 5 6 5 4 4 3 1 1 3 4 3 4 4 6 6 5 6 5 5
8 12 14 13 13 12 14 13 14 14 16 15 14 14 12 9 8 8 7 6 6 5 5 4 5 4 5 3 2 2 2 2 2 4 4 4 6 8 4 2 4 6 5
10 12 12 9 11 15 15 13 14 14 14 13 13 11 10 10 9 8 8 8 6 5 2 1 3 3 2 3 6 5 2 1 1 4 5 5 6 3 5 4 3 2 2
11 14 16 18 17 17 15 16 13 10 12 12 11 12 12 11 10 8 12 13 11 10 10 8 6 5 3 6 4 2 1 3 4 4 4 6 5 6 5 5 5 4 5
16 12 13 13 14 9 12 12 14 16 15 15 13 13 13 11 13 14 11 9 9 6 8 8 10 6 5 2 1 4 2 4 6 4 4 5 7 6 6 4 5 5 5
19 18 14 12 9 12 13 12 12 14 14 13 15 13 13 16 15 13 12 3 6 3 3 4 7 7 6 6 7 4 4 5 4 1 2 3 5 8 7 3 5 6 7
15 18 11 7 11 11 15 16 14 15 15 14 13 14 17 17 15 12 9 5 3 3 3 3 3 5 2 3 2 2 1 2 3 4 5 4 6 9 7 4 5 7 7
22 17 12 14 13 13 16 16 16 16 13 13 13 12 12 13 11 9 4 3 4 5 5 4 2 4 6 7 6 3 2 1 2 2 4 4 7 8 6 7 6 8 8
22 7 8 8 11 13 14 14 14 13 14 13 13 10 10 12 5 11 7 7 7 6 4 3 4 6 6 9 10 13 11 5 2 2 3 5 10 10 11 10 12 14 12
9 5 7 9 7 8 11 16 12 13 15 14 14 16 10 5 6 9 7 5 5 3 3 2 2 4 4 4 10 9 9 9 4 3 6 11 11 10 8 10 14 13 7
1 4 10 12 12 12 13 17 16 14 16 16 17 11 13 8 9 9 6 5 4 3 4 4 4 3 5 5 5 6 5 9 7 8 7 8 10 9 9 9 8 7 7
5 6 9 10 12 16 12 10 12 14 15 14 12 12 11 12 12 11 6 7 6 4 6 5 5 4 3 4 5 5 5 5 6 8 5 6 7 8 8 8 8 8 9
6 9 12 13 12 12 15 12 12 14 14 12 8 7 9 9 9 11 12 18 16 19 17 13 7 4 6 7 8 8 7 7 8 3 4 6 7 7 8 9 10 8 10
Wind_Direction
223 210 206 200 194 190 187 197 180 189 160 150 161 185 212 220 237 223 237 210 208 201 197 214 233 231 244 255 243 248 272 282 252 273 287 279 272 255 257 262 226 214 211
196 195 195 191 191 188 192 187 197 182 190 185 168 164 171 212 213 212 226 215 215 196 189 199 215 216 222 246 246 214 261 257 230 271 349 334 333 5 294 284 271 238 228
204 188 182 190 186 191 193 194 197 190 190 183 127 138 129 47 163 227 233 220 211 187 185 195 210 220 218 244 226 223 219 272 345 195 203 320 277 311 308 280 279 268 240
218 200 188 181 186 199 192 197 191 189 190 176 178 178 178 180 207 194 236 271 208 210 203 205 202 213 222 243 244 228 230 203 249 243 217 223 222 291 325 311 293 287 272
209 202 192 194 200 187 190 194 187 190 183 180 189 190 193 197 187 197 228 248 221 214 209 208 201 210 219 227 233 235 219 216 223 216 334 311 245 217 239 300 321 299 279
208 202 198 192 197 194 189 185 178 193 181 182 187 190 197 202 200 222 236 234 238 243 226 213 213 218 226 225 233 232 237 256 213 194 205 230 272 243 186 259 280 290 304
200 192 191 193 190 187 188 186 183 193 185 189 195 201 204 196 203 211 212 219 233 237 241 212 223 236 235 241 238 230 251 266 261 181 194 199 220 217 195 205 270 297 317
192 192 197 196 192 191 189 188 186 196 184 190 201 203 203 205 212 212 208 214 207 217 219 210 218 227 239 249 230 223 237 248 270 260 208 224 235 243 208 216 230 295 281
196 197 196 196 194 194 193 191 190 195 191 196 196 197 197 198 204 210 208 220 221 234 231 214 222 223 232 240 226 221 234 238 262 269 203 201 249 262 240 217 181 211 294
199 211 189 193 197 198 195 191 194 194 195 194 197 200 198 201 205 195 211 217 228 225 242 237 229 245 244 226 220 236 237 250 269 276 251 231 227 244 238 267 235 221 223
199 210 197 194 196 196 191 196 193 193 191 192 195 198 200 200 197 204 208 212 209 211 213 221 238 245 239 224 228 258 263 250 259 273 286 289 270 284 270 232 215 237 223
201 205 196 190 187 191 191 192 195 193 195 194 193 201 199 194 198 209 210 197 209 211 215 226 234 233 243 249 242 253 254 264 287 294 300 289 273 259 269 265 251 232 208
200 203 194 189 188 194 192 194 191 198 195 186 192 192 198 192 202 209 207 187 193 217 226 213 223 231 239 237 232 237 268 271 274 282 286 288 293 294 299 293 289 287 258
200 198 199 199 196 196 194 190 193 195 187 186 187 192 193 198 201 194 181 175 187 207 211 222 236 238 238 238 235 227 282 316 306 304 300 305 304 302 309 309 308 288 283
203 201 201 206 198 191 194 189 192 186 182 183 184 192 194 188 171 159 158 165 171 181 190 210 240 266 259 214 194 154 195 251 326 325 326 316 315 326 348 296 302 303 288
218 238 215 204 206 193 192 185 185 185 177 177 182 181 167 163 165 153 162 165 167 171 159 345 269 205 216 139 171 179 204 227 273 300 301 303 296 315 313 320 344 358 344
244 221 219 203 204 200 180 188 179 152 166 169 173 170 166 161 164 128 96 95 98 104 93 36 341 244 236 201 166 130 248 287 276 266 290 307 301 318 314 323 328 340 347
308 257 236 230 210 172 184 158 161 170 174 165 169 168 164 145 121 129 134 160 177 147 148 138 201 243 252 192 157 233 237 266 255 261 275 273 294 292 278 298 311 315 310
303 291 249 241 162 164 157 156 158 162 158 176 167 164 146 134 148 148 166 51 106 191 45 82 159 192 222 197 209 192 195 227 287 312 256 263 275 268 244 255 281 291 295
289 284 264 165 156 165 154 146 157 166 171 168 161 150 153 150 159 153 111 138 164 147 136 87 129 191 221 203 348 183 192 300 323 325 322 307 291 299 237 240 276 289 285
302 274 202 187 176 161 152 153 158 175 153 144 141 139 139 144 128 114 67 97 125 109 98 156 176 79 36 47 44 137 138 246 296 307 322 336 342 327 287 261 272 260 280
309 225 175 154 144 153 149 151 156 141 131 133 129 123 109 115 109 106 117 108 104 121 146 90 79 70 68 51 51 56 58 28 45 346 309 304 309 308 297 294 275 272 284
277 163 157 126 126 131 145 129 122 123 119 113 105 107 57 85 108 107 101 89 98 107 109 103 86 90 75 54 35 38 35 32 21 336 313 308 306 303 306 300 307 306 299
270 117 128 117 104 106 116 127 136 133 120 112 106 109 112 96 64 58 56 76 69 72 68 88 93 72 48 33 16 16 8 2 350 338 326 316 305 302 298 311 312 312 312
80 117 107 103 103 108 101 105 112 110 103 104 110 108 111 104 87 68 57 76 30 66 100 73 75 72 43 18 13 13 352 339 332 326 342 340 343 346 342 331 327 325 317
73 93 104 105 93 90 85 76 73 86 92 86 77 80 94 96 95 100 90 55 77 80 75 67 71 75 58 22 11 2 353 351 342 15 355 354 349 344 340 331 323 317 331